Regional Weather Roundup
Issued by NWS Newport/Morehead, NC

Home | Current Version | Previous Version | Text Only | Print | Product List | Glossary On
Versions: 1 2 3 4 5 6 7 8 9 10 11 12 13 14 15 16 17 18 19 20 21 22 23 24 25 26 27 28 29 30 31 32 33 34 35 36 37 38 39 40 41 42 43 44 45 46 47 48 49 50
000
ASUS42 KMHX 021722
RWRMHX
WEATHER ROUNDUP FOR EASTERN NORTH CAROLINA
NATIONAL WEATHER SERVICE NEWPORT/MOREHEAD CITY NC
100 PM EDT THU OCT 02 2014

NOTE: "FAIR" INDICATES FEW OR NO CLOUDS BELOW 12,000 FEET
WITH NO SIGNIFICANT WEATHER AND/OR OBSTRUCTIONS TO VISIBILITY

NCZ015>017-031-032-045>047-102-103-021800-
NORTH COAST

CITY           SKY/WX    TMP DP  RH WIND       PRES   REMARKS
EDENTON        CLOUDY    73  64  74 CALM      30.11F
ELIZABETH CITY PTSUNNY   75  62  64 N7        30.11S
KITTY HAWK     SUNNY     74  61  64 N8        30.09S
MANTEO         MOSUNNY   74  62  66 N10       30.11S

$$

NCZ045>047-081-094-103-104-021800-
CENTRAL COAST

CITY           SKY/WX    TMP DP  RH WIND       PRES   REMARKS
FRISCO         MOSUNNY   74  63  68 NE8       30.10S
SWANQUARTER      N/A     75 N/A N/A NE6       30.06S

$$

NCZ095-097-098-100-101-021800-
SOUTHERN COAST

CITY           SKY/WX    TMP DP  RH WIND       PRES   REMARKS
BEAUFORT       MOSUNNY   79  65  62 NW5       30.10F
CEDAR ISLAND     N/A     73 N/A N/A VRB2      30.15S
JACKSONVILLE   PTSUNNY   80  65  59 N7        30.08F
NEWPORT        NOT AVBL
PINEY ISLAND   SUNNY     75  62  64 NE7       30.10F
WILMINGTON     PTSUNNY   80  66  62 NE3       30.09F


$$

NCZ011>013-027>030-043-044-078>080-089-090>093-098-021800-
COASTAL PLAIN

CITY           SKY/WX    TMP DP  RH WIND       PRES   REMARKS
AHOSKIE        SUNNY     73  63  68 CALM      30.10F
CLINTON        PTSUNNY   80  67  65 N3        30.09F
ELIZABETHTOWN  MOSUNNY   80  64  57 CALM      30.09F
GOLDSBORO      MOSUNNY   78  70  74 CALM      30.08F
GREENVILLE     MOSUNNY   77  64  65 NE3       30.11F
HAVELOCK       MOSUNNY   80  64  58 N9        30.10F
KENANSVILLE    MOSUNNY   80  64  56 N3        30.10F
KINSTON        MOSUNNY   77  64  65 CALM      30.10F
NEW BERN       MOSUNNY   80  65  59 CALM      30.10F
RICHLANDS      MOSUNNY   79  64  61 CALM      30.09F
ROANOKE RAPIDS NOT AVBL
ROCKY MOUNT    MOSUNNY   78  64  61 W3        30.10F
WASHINGTON     MOSUNNY   76  65  68 NE5       30.10F
WHITEVILLE     MOSUNNY   81  65  58 W5        30.09F

$$

AMZ130-135-150-152-154-156-158-170-250-252-270-ANZ085-086-088-633-658-670-021800-
MARINE OBSERVATIONS

STATION/POSITION TIME  TEMP    WIND        PRES    WAVE   SWELL
                       AIR SEA DIR/SP/G            HT/PER HT/PER
                 (UTC) (F)     (DEG/KT/KT) (MB)    (FT/S) (FT/S)
CHESAPEAKE LIGHT 1700   68      20/ 12/ 13 1020.1
BUOY 44014       1700   69 71  350/ 14/ 16 1018.5    4/ 8   3/ 8
DUCK             1700   70 73  360/ 11/ 12 1018.6
2E DUCK          1700                        N/A     4/ 8
OREGON INLET     1700   73 73  350/  9/ 12 1019.3
BUOY 44095       1700      72                N/A     5/ 8   2/12
20E OREGON INLET NOT AVBL
HATTERAS CG      1700   71 73   10/  9/ 10 1019.8
DIAMOND BUOY     1700   71     350/ 12/ 16 1019.1    3/ 8   2/ 8
CAPE LOOKOUT     1700   73      70/  6/  6 1019.1
BEAUFORT LAB     1700   76 75  350/  5/  7 1018.5
30 SE NEW RIVER  1700   74 80   10/  4/  6 1018.9    2/ 8   2/ 8
5 SE WRIGHTSVILL 1700   72 76  140/  4/  6   N/A
BUOY 41002       1600   79 80   20/ 10/ 14 1018.0    3/ 7   3/ 7
BUOY 41004       1700   78 81   40/  8/ 10 1018.8    2/ 7   2/ 7

$$



USA.gov is the U.S. government's official web portal to all federal, state and local government web resources and services.